GEFSSE_500_meanwind_006.txt.gz
Wind_Speed
18 18 18 18 18 17 17 16 13 11 10 11 10 11 12 11 12 13 13 13 14 15 16 17 17 17 17 17 18 19 19 18 19 18 17 18 17 15 14 11 11 10 10
20 20 20 19 17 16 16 16 13 12 11 10 10 10 11 11 12 13 14 14 14 15 15 14 15 16 17 18 19 21 22 22 22 21 21 21 19 17 16 14 12 10 10
21 21 21 20 18 17 17 15 12 12 12 11 11 10 10 10 12 15 16 15 15 15 14 14 14 15 17 19 21 23 24 25 24 24 24 24 22 20 19 18 16 14 13
20 20 20 19 18 17 17 14 12 13 13 12 11 10 10 9 11 14 17 17 17 16 16 16 17 18 18 19 22 24 26 26 27 27 27 27 25 23 23 23 21 20 18
20 19 18 19 19 18 16 12 12 13 13 13 11 11 11 10 10 13 17 19 19 19 19 19 20 21 22 22 24 25 26 28 29 30 30 29 28 26 25 25 24 24 23
20 19 18 19 19 19 15 12 13 13 12 12 12 13 13 13 12 12 15 18 20 21 22 23 24 24 25 27 28 28 27 29 31 30 29 29 29 29 28 28 27 28 28
18 18 18 19 19 19 15 12 13 13 12 12 13 14 15 15 15 16 17 18 19 21 23 24 24 25 25 27 28 29 28 29 29 28 27 27 29 31 32 32 33 33 33
18 17 18 20 20 20 17 14 14 12 10 11 13 13 14 15 15 17 19 21 21 23 24 25 25 26 27 27 28 28 28 29 29 30 30 30 30 32 34 35 37 38 38
16 16 19 22 22 21 18 16 15 13 10 10 11 10 10 11 12 14 16 19 22 23 25 26 27 28 29 30 30 30 30 32 32 33 34 34 35 36 38 39 40 41 42
17 17 20 23 23 23 21 19 17 15 12 12 12 12 13 14 14 14 15 16 18 20 21 22 24 27 29 30 31 32 33 33 34 35 36 37 38 39 40 42 43 44 44
19 19 21 25 26 25 23 21 20 18 16 14 15 15 15 17 18 18 18 18 19 20 21 22 23 25 27 30 31 32 34 35 36 37 38 40 40 41 42 42 41 41 39
21 21 22 26 27 26 25 23 23 21 19 18 18 19 20 22 23 23 23 23 24 25 25 26 27 28 30 31 32 33 34 36 37 37 39 39 39 39 38 37 35 34 34
22 22 23 26 28 28 27 25 24 22 21 21 22 24 26 27 28 29 29 28 28 29 30 30 31 32 34 35 35 36 37 37 37 37 38 37 37 37 36 35 35 36 36
25 23 23 25 28 29 28 27 25 25 24 24 25 25 27 27 28 31 33 32 32 32 32 33 34 36 37 37 37 37 38 37 37 36 36 36 36 37 38 38 39 40 40
26 25 25 24 25 26 28 28 27 28 27 26 25 26 27 27 29 32 35 34 33 33 33 34 35 36 36 35 34 34 33 33 34 34 35 36 37 38 39 40 42 42 42
26 27 27 26 25 23 25 27 28 30 29 28 27 28 29 30 32 32 30 29 30 32 33 34 35 36 35 34 33 33 34 35 35 36 37 38 39 40 40 41 43 44 46
26 26 27 27 25 23 23 24 27 30 29 27 28 29 30 31 31 28 26 26 28 30 32 35 36 37 36 35 34 35 36 37 37 38 40 41 42 42 43 44 46 48 49
25 26 25 26 25 23 23 23 25 26 26 26 27 29 31 31 28 26 26 28 30 33 35 38 40 39 37 36 36 37 38 39 40 41 42 43 44 45 47 48 49 51 53
26 26 25 24 24 23 22 22 23 23 24 25 26 28 30 29 27 28 30 33 35 37 39 41 42 41 39 38 38 39 40 41 41 43 44 46 47 49 51 54 56 59 61
27 26 24 22 23 23 22 21 22 23 26 27 28 30 29 29 30 32 34 37 39 40 41 43 43 42 40 38 38 39 41 42 43 45 48 51 53 56 59 61 64 65 67
28 26 24 21 23 24 23 21 22 25 26 28 29 30 29 29 32 35 38 41 42 42 43 43 41 40 39 38 38 40 43 45 48 51 54 56 59 63 66 68 69 70 71
27 27 25 23 23 24 23 23 25 27 27 28 27 27 28 30 34 38 42 43 43 43 42 39 37 37 39 41 42 44 45 47 51 55 58 61 64 66 68 70 71 72 73
28 28 27 25 24 26 26 27 28 28 27 27 27 29 32 35 39 42 43 42 42 40 37 37 38 40 43 46 48 50 52 53 54 56 60 64 66 67 68 69 70 72 74
28 28 28 27 27 27 29 30 30 29 28 28 30 33 36 38 40 41 41 40 39 38 39 40 42 44 46 49 53 58 61 65 67 66 63 63 64 66 67 69 71 73 75
28 28 28 29 29 30 32 32 30 29 30 31 34 37 39 40 40 40 39 39 39 40 41 44 46 48 51 54 57 60 64 68 72 74 73 69 66 66 67 70 74 78 81
29 29 29 29 29 30 32 31 30 31 32 34 37 39 40 40 39 38 39 39 40 41 43 46 49 52 56 59 62 64 66 68 68 70 72 73 73 72 73 77 82 86 90

GEFSSE_500_meanwind_012.txt.gz
Wind_Speed
15 14 14 14 14 15 16 16 17 16 14 13 12 12 11 11 12 12 12 13 14 16 16 18 20 21 22 22 21 21 21 21 22 23 23 23 23 23 24 24 23 21 20
15 16 16 16 16 16 16 16 17 16 14 12 11 11 11 11 12 13 13 14 15 16 17 18 20 21 21 21 22 23 22 23 23 24 25 25 26 27 28 28 26 23 21
17 17 18 19 18 16 16 16 16 15 13 12 10 10 10 10 11 12 13 14 15 16 17 18 19 19 19 20 21 22 22 23 24 25 26 28 29 31 31 30 29 27 25
18 18 19 20 19 17 17 16 15 14 13 11 10 9 9 10 10 11 12 13 15 16 17 18 18 18 19 19 21 22 23 24 25 27 28 30 31 33 33 33 32 31 30
19 19 20 21 20 18 17 16 15 13 12 11 10 9 10 11 11 11 11 12 13 15 17 19 20 20 21 22 23 24 25 26 28 29 31 32 32 33 34 34 34 33 33
19 19 21 21 21 18 17 17 16 14 12 11 10 10 10 11 12 12 13 14 14 15 16 18 20 22 24 25 26 26 27 28 28 29 30 31 32 33 33 33 33 33 33
20 20 21 21 20 18 16 16 16 15 13 12 10 9 10 10 11 12 13 15 16 18 20 22 23 25 26 26 27 28 29 30 30 30 30 30 31 32 32 32 33 32 31
20 20 20 20 19 18 17 18 17 17 15 13 11 10 9 8 8 10 11 13 14 17 19 21 24 26 28 28 29 30 31 32 33 33 33 34 34 34 35 35 35 35 34
19 18 18 18 19 19 19 19 19 19 18 16 13 12 11 9 8 9 11 12 13 15 17 19 21 23 24 25 26 27 29 31 32 33 34 35 36 37 37 37 37 37 37
19 18 18 18 18 20 20 20 21 21 20 18 16 15 15 13 11 13 15 16 18 20 21 23 25 25 26 26 27 28 29 31 32 33 34 35 36 37 37 38 38 39 39
19 19 20 19 18 19 20 21 22 23 22 21 19 18 18 16 15 16 19 21 24 27 28 29 30 30 30 30 31 31 32 33 34 35 36 37 38 38 39 39 39 40 40
22 21 21 21 20 20 21 22 23 24 24 24 23 21 21 20 19 20 23 26 29 30 32 33 34 34 34 34 34 33 33 33 34 35 35 36 37 39 40 40 40 40 40
25 23 23 24 23 22 22 22 22 23 25 26 26 24 23 23 23 24 25 27 29 31 32 33 32 31 31 33 34 34 34 34 35 35 34 34 35 36 37 37 37 37 37
27 26 26 26 26 25 24 23 21 22 24 26 27 26 25 25 25 25 27 29 31 33 32 30 27 26 28 29 31 33 34 35 36 36 36 35 35 35 35 36 37 37 38
27 27 28 28 29 28 26 24 22 21 22 24 25 26 25 26 26 26 29 30 32 32 30 26 25 26 27 29 31 33 35 37 38 38 37 36 36 36 36 37 38 39 40
27 28 30 30 30 30 28 25 23 21 20 21 22 24 25 26 27 28 29 31 32 31 28 25 26 28 31 33 35 37 39 40 40 39 38 37 38 38 39 39 40 41 42
28 29 30 30 31 30 28 26 23 22 21 21 21 22 23 25 26 28 30 31 32 30 28 27 29 31 35 38 40 42 44 44 43 40 38 38 39 39 40 41 42 43 44
30 30 31 30 31 30 28 26 24 23 23 22 21 22 22 23 24 27 29 31 32 31 30 30 32 35 38 41 43 44 44 43 41 39 38 38 39 40 42 43 45 46 47
33 32 31 31 32 31 28 26 25 25 25 23 22 22 22 22 24 28 31 32 32 31 31 32 35 38 40 41 42 41 40 39 38 38 39 40 41 43 45 46 48 49 51
35 33 32 31 32 30 29 27 27 27 27 24 23 23 23 24 26 30 32 32 30 30 32 35 38 39 40 40 40 39 37 38 39 40 42 44 45 47 48 50 52 54 56
35 34 33 32 32 31 29 28 28 28 27 25 24 24 25 26 28 30 31 30 31 32 35 38 40 41 40 39 38 39 40 40 42 43 45 47 50 52 54 56 58 59 61
35 35 34 34 33 31 30 29 28 27 27 26 26 26 27 28 30 32 32 32 34 36 38 40 42 42 41 40 39 40 41 43 45 48 50 52 55 58 60 61 62 64 65
35 36 36 35 34 33 32 30 28 28 28 28 29 29 30 32 33 35 35 36 37 39 41 42 43 43 43 42 42 43 44 44 45 47 52 56 59 61 63 64 65 65 65
36 37 38 36 35 34 32 31 30 30 30 31 32 33 34 36 37 38 39 40 41 43 43 43 43 43 43 44 45 47 50 52 53 52 53 57 60 61 61 62 63 63 65
38 38 39 38 35 33 33 32 32 31 31 32 33 35 37 39 40 41 42 43 44 44 44 44 43 43 44 47 49 52 54 57 60 62 60 60 61 61 61 62 63 65 67
39 38 39 38 36 34 33 33 33 32 32 34 35 37 39 40 42 43 44 45 44 44 44 44 43 45 48 51 54 57 60 62 64 66 66 65 65 64 64 65 67 70 74

GEFSSE_500_meanwind_018.txt.gz
Wind_Speed
15 15 15 15 16 15 14 12 11 11 11 10 10 10 9 9 9 9 9 9 10 12 13 14 15 16 16 17 17 18 19 20 21 21 20 21 21 22 23 23 23 23 24
16 16 16 16 17 17 15 14 13 13 12 11 10 10 10 11 10 10 10 11 12 13 14 15 16 17 17 18 17 17 18 18 19 20 20 21 22 23 24 25 25 26 27
18 18 18 18 18 18 17 15 14 14 14 13 11 11 11 11 11 11 12 12 13 14 15 16 16 17 18 18 18 17 17 17 17 18 19 21 22 24 25 26 27 27 28
19 19 19 19 19 19 18 16 15 15 15 13 12 11 11 12 12 13 13 13 13 15 15 16 17 18 18 19 19 19 19 19 19 20 21 23 24 25 27 28 28 29 29
20 20 19 19 19 19 18 17 16 16 15 14 13 12 12 12 13 13 14 14 13 13 13 14 15 16 17 19 19 20 21 21 22 23 23 25 25 26 27 27 28 28 28
23 23 23 22 21 20 19 18 17 16 15 15 15 14 13 13 13 13 14 15 15 14 14 15 16 16 18 19 20 21 22 23 24 24 25 26 27 27 28 28 29 29 29
25 26 27 27 25 23 20 19 17 17 16 16 16 15 14 14 14 13 14 15 15 14 14 15 16 17 18 19 20 21 22 23 24 25 25 26 27 28 29 30 31 31 31
26 26 27 28 27 24 22 20 18 17 17 17 17 17 16 15 14 13 14 14 14 13 12 13 14 15 16 18 19 20 21 22 22 22 23 24 26 27 28 29 30 31 32
26 26 26 27 27 25 22 21 20 19 18 18 19 19 18 17 16 16 15 14 14 14 14 15 17 18 20 22 24 24 25 25 25 25 25 26 27 29 30 31 32 33 34
26 26 27 27 26 25 23 21 21 21 20 20 20 21 21 20 19 19 18 17 17 17 18 19 20 22 24 25 26 27 27 27 27 27 27 28 28 29 30 31 32 33 34
27 28 28 28 28 27 25 23 22 21 20 21 22 23 23 23 23 22 22 21 21 20 20 21 22 23 24 24 24 23 23 23 25 26 27 29 30 31 32 32 33 33 33
29 28 29 30 30 29 28 26 24 22 21 22 23 24 25 26 27 26 25 25 24 23 23 23 24 24 24 22 21 19 19 20 22 24 26 27 29 31 32 34 34 34 33
32 30 31 32 32 31 30 29 27 25 24 23 24 25 27 29 29 29 28 28 28 27 26 25 25 26 25 23 21 19 19 20 23 25 27 29 31 33 34 35 35 35 34
33 32 32 34 35 34 33 32 30 28 27 26 26 27 29 30 30 30 30 30 30 29 28 27 27 28 27 25 23 22 22 24 26 29 31 33 35 36 36 36 36 36 36
35 34 34 34 36 37 36 35 34 32 30 28 28 29 30 31 31 30 31 30 30 29 29 29 29 29 29 28 26 26 27 28 31 33 35 36 37 37 36 35 34 35 35
37 36 35 34 35 36 37 37 36 35 33 32 31 30 31 31 31 30 30 30 30 30 30 30 30 31 31 30 29 30 31 32 34 36 37 37 37 36 35 34 34 34 35
38 37 36 35 35 35 36 36 36 36 36 34 33 32 32 32 31 30 30 30 31 31 31 30 31 32 32 31 31 32 33 35 37 38 38 38 37 37 36 36 36 37 38
40 39 38 37 36 36 36 36 36 37 37 36 35 33 32 32 31 30 30 31 31 31 31 31 32 33 33 32 32 33 35 38 39 39 39 39 39 38 38 39 40 41 43
42 42 42 40 39 39 38 36 36 37 38 37 36 34 33 33 33 32 32 32 32 32 32 32 33 33 33 33 33 35 37 39 40 40 40 40 40 41 42 43 44 46 47
42 42 43 43 43 43 41 39 38 38 39 38 37 35 34 35 34 34 34 34 33 33 33 33 33 33 34 35 36 38 40 41 42 42 42 42 42 44 45 47 49 51 52
42 42 41 43 44 45 44 42 41 40 40 39 37 35 35 35 36 36 36 35 34 34 35 34 34 34 36 38 40 42 43 43 44 44 44 44 45 47 49 51 53 55 57
43 43 41 42 44 45 45 44 43 42 41 39 37 35 35 36 37 38 37 36 36 37 37 36 37 38 39 41 43 46 47 46 46 47 47 47 48 51 53 56 58 60 61
44 44 43 42 43 44 45 44 43 42 40 37 36 36 36 36 38 38 38 38 39 39 39 39 40 42 43 44 46 47 48 48 47 48 50 51 53 56 58 61 63 65 66
44 45 43 43 43 44 43 42 41 41 38 37 36 36 36 36 37 38 39 40 42 42 42 42 44 45 46 47 48 49 49 50 50 48 49 53 56 58 61 64 66 68 70
46 45 44 44 44 43 42 40 40 40 37 36 36 36 37 37 38 39 40 42 43 44 44 45 46 47 49 50 50 50 50 52 53 53 53 55 58 60 62 65 68 70 72
49 46 44 44 44 43 41 39 39 39 37 36 36 37 38 39 40 40 41 43 44 45 46 47 48 49 50 51 51 51 52 53 54 57 59 60 61 63 65 67 69 71 73

GEFSSE_500_meanwind_024.txt.gz
Wind_Speed
18 20 20 20 20 20 21 22 21 20 19 18 18 17 16 16 15 14 14 14 14 13 13 13 13 13 14 14 14 14 15 16 16 17 17 17 18 19 20 20 21 21 21
19 20 20 19 19 19 20 21 22 21 20 19 19 18 17 17 16 16 15 15 15 15 14 14 14 15 15 15 15 15 17 18 18 18 18 18 19 19 20 21 21 22 23
21 21 21 20 19 19 20 21 22 22 22 21 20 20 19 18 17 17 16 16 16 16 16 16 16 16 16 16 16 17 18 19 19 19 19 18 19 20 20 21 22 23 24
23 23 22 21 21 21 21 21 22 22 22 22 21 20 20 18 17 17 17 17 17 17 18 18 18 18 18 17 17 17 18 19 19 20 20 20 21 21 22 22 23 24 24
23 23 23 23 22 21 21 21 21 22 22 22 21 20 20 18 18 17 17 18 18 18 18 18 17 17 17 16 16 17 18 19 20 21 21 22 23 23 24 24 25 25 25
24 23 23 23 23 22 21 21 21 22 22 22 22 21 20 20 19 18 18 18 19 19 18 18 18 18 17 17 17 17 19 20 21 22 23 24 26 26 26 26 26 27 27
24 24 24 24 24 24 24 23 23 23 23 23 23 22 22 21 20 19 18 18 19 19 18 18 18 18 18 18 17 18 19 20 21 23 24 25 25 24 24 24 24 25 25
25 24 25 25 25 25 25 25 24 23 23 23 23 23 23 22 21 20 19 19 19 19 18 18 18 18 18 18 18 19 21 23 25 27 27 28 28 26 25 25 25 25 26
26 26 27 26 26 26 26 26 25 24 23 22 23 22 22 23 22 21 20 20 19 18 18 18 19 19 19 19 21 22 24 26 27 29 29 30 29 28 28 27 27 27 28
29 28 28 28 27 27 26 26 25 24 23 22 22 22 23 23 23 23 23 22 21 20 20 20 21 21 22 23 24 24 25 25 26 25 26 26 26 26 27 28 28 29 29
31 30 29 29 28 27 27 26 26 26 25 23 22 22 23 23 24 24 25 25 25 24 24 24 24 25 26 26 26 26 25 25 24 23 24 23 22 23 24 25 26 27 28
33 32 31 30 30 29 28 28 27 27 27 26 24 23 23 23 24 24 25 26 27 27 27 28 29 29 29 29 29 28 27 27 25 24 24 23 22 22 23 25 26 28 30
35 34 33 33 32 31 30 29 29 29 29 29 28 27 26 25 25 25 26 27 28 29 30 32 33 33 33 32 31 30 30 29 28 27 27 26 25 26 27 28 29 30 31
34 35 36 36 35 34 32 31 30 30 31 31 30 29 29 28 28 27 27 28 29 30 31 32 34 35 35 34 33 33 32 31 31 30 30 30 30 30 30 30 31 32 32
33 33 35 37 38 37 35 33 32 32 32 32 32 32 31 31 30 29 28 28 29 30 31 32 33 34 35 35 35 35 33 33 33 32 33 33 33 33 32 33 33 34 34
33 34 34 36 38 38 37 35 34 33 33 32 32 33 33 33 33 32 31 30 30 31 32 33 34 34 34 35 36 36 35 35 34 33 34 34 34 34 34 35 35 35 36
33 34 34 35 37 37 37 37 36 35 34 34 33 34 34 34 34 34 33 32 32 33 33 34 34 35 35 35 36 36 36 35 35 34 34 34 34 35 35 36 36 37 38
34 35 35 34 35 36 37 38 38 37 35 35 34 34 34 34 35 35 35 35 34 35 35 35 35 36 36 36 36 36 37 36 35 35 34 34 35 36 37 38 38 39 40
35 36 36 34 33 35 36 38 39 38 36 34 34 34 34 35 36 37 37 37 36 37 37 37 37 37 36 36 37 37 37 36 36 36 35 36 37 38 40 41 42 43 44
37 38 39 37 35 36 36 36 38 39 38 37 36 36 37 37 38 38 38 38 38 38 38 38 38 38 38 38 38 38 38 38 38 38 39 40 41 42 43 44 45 46 47
38 40 41 40 38 38 36 36 38 40 40 39 38 39 39 39 39 39 39 39 40 40 39 39 40 40 40 40 40 40 41 41 41 42 43 44 45 46 46 47 48 49 50
39 41 43 43 41 40 39 38 40 40 39 39 39 40 40 40 40 40 40 40 41 40 40 40 40 41 41 42 42 43 44 44 45 46 46 47 48 48 49 50 51 52 53
41 42 44 45 46 44 42 42 41 40 40 40 40 40 40 40 40 39 40 40 40 40 40 40 41 41 42 44 45 46 47 47 47 47 48 49 50 50 51 52 53 55 56
45 45 46 47 49 48 46 44 43 42 42 41 41 40 40 39 38 38 39 40 40 40 40 41 42 42 43 45 47 48 49 50 50 49 48 50 50 51 53 54 55 57 59
50 48 48 49 50 50 48 47 46 44 43 43 42 40 39 39 38 38 39 39 39 40 41 42 43 44 45 46 48 49 50 51 51 50 49 50 51 53 54 55 56 58 61
55 53 51 50 50 50 50 49 48 46 44 43 42 41 40 40 39 38 39 39 39 39 40 42 44 45 46 48 49 50 51 51 51 52 52 51 52 52 54 56 59 61 64

GEFSSE_500_meanwind_030.txt.gz
Wind_Speed
16 16 17 18 19 19 20 19 19 19 19 19 19 19 19 18 18 17 17 17 17 17 17 17 17 17 18 18 17 16 16 15 15 15 16 16 17 18 18 20 20 21 21
16 17 18 18 18 18 18 18 18 18 19 19 20 20 20 20 20 19 18 18 18 17 17 17 17 17 18 17 17 17 16 16 16 17 17 17 18 19 19 20 21 22 22
17 18 18 18 18 18 18 18 18 19 20 20 21 21 22 22 22 22 20 20 19 18 18 18 17 18 18 18 18 18 18 18 18 19 19 19 20 21 22 22 23 23 24
17 17 18 18 19 20 20 20 20 21 21 22 22 22 23 23 23 23 22 21 21 19 19 18 18 18 19 19 19 19 19 18 18 19 20 20 21 22 23 24 25 25 26
18 18 18 18 19 20 21 21 21 22 22 23 23 23 24 24 24 24 23 22 22 21 20 19 19 19 20 20 19 19 19 18 18 19 20 21 22 23 25 26 26 27 27
20 19 19 20 20 21 22 22 22 22 23 24 24 24 24 24 24 24 24 23 23 23 21 21 20 20 20 20 20 19 19 19 19 20 21 22 23 25 26 27 27 27 27
23 22 22 22 22 22 22 22 22 23 23 23 24 24 24 25 25 24 24 24 24 24 23 21 21 20 20 20 20 19 19 19 20 21 22 23 25 27 28 28 28 28 27
26 24 24 23 23 23 23 22 22 22 22 22 22 23 23 23 24 23 23 24 24 24 24 22 21 21 20 20 20 19 19 19 21 23 24 25 26 27 27 27 27 27 27
27 26 25 25 25 24 23 23 22 22 22 22 21 21 22 22 22 22 22 22 23 23 23 23 22 21 21 20 21 21 21 22 23 25 25 26 26 26 26 26 25 25 25
28 28 27 26 25 25 25 24 24 24 23 23 22 21 21 21 21 21 20 20 21 22 23 23 23 23 23 23 23 23 24 25 26 27 27 27 27 27 26 25 25 24 24
28 29 29 27 27 27 27 26 26 25 24 24 23 22 21 21 20 20 20 20 20 21 22 23 24 25 26 27 27 28 28 29 30 30 30 30 29 29 28 28 26 26 25
28 30 30 29 28 28 28 28 28 27 26 25 25 24 23 22 22 21 21 20 21 21 23 24 25 26 28 29 31 32 33 33 34 34 33 33 32 31 31 30 29 28 28
28 29 30 30 29 29 29 30 30 29 28 27 27 27 26 25 24 23 23 22 22 23 24 24 25 26 27 29 31 33 35 37 37 36 36 35 35 34 33 32 31 31 31
27 27 28 29 29 29 30 31 32 31 30 30 29 28 27 27 26 25 25 24 24 24 25 26 26 27 27 28 29 31 33 35 36 37 37 37 36 36 35 34 34 34 34
27 27 27 28 28 29 31 32 32 32 32 31 30 29 29 28 28 28 27 27 26 26 27 27 28 28 29 29 29 30 31 32 33 34 35 35 36 36 35 35 35 35 35
30 29 29 28 29 30 30 31 32 32 32 32 31 31 30 29 29 29 29 28 28 28 28 28 29 29 30 30 31 31 31 32 32 32 33 33 34 34 34 35 35 35 34
32 32 31 29 30 30 31 31 32 32 32 31 31 31 31 30 30 29 29 29 28 28 29 30 30 31 31 32 32 33 33 33 32 32 33 33 33 33 34 34 35 35 35
34 34 32 31 31 31 31 32 32 32 31 30 30 30 30 30 31 30 29 29 29 29 31 31 32 32 32 33 34 34 34 34 34 33 33 34 34 34 34 35 36 36 37
36 36 35 33 32 32 33 34 34 33 31 29 29 29 29 31 31 31 30 30 31 32 33 34 34 34 35 35 35 36 36 36 36 35 35 35 36 37 37 38 39 40 42
37 38 37 36 34 34 34 35 35 34 32 31 30 30 30 32 32 32 32 32 33 34 35 35 36 36 36 36 36 36 37 37 37 37 37 37 38 39 41 42 43 44 45
38 39 39 39 37 36 36 36 36 36 36 35 34 33 32 32 33 33 33 34 34 34 35 35 36 36 36 36 36 37 37 37 37 38 38 39 40 42 43 45 46 48 48
41 42 42 42 41 40 39 38 39 40 40 39 36 34 33 33 34 34 34 34 33 34 34 35 35 35 35 35 36 37 37 37 38 39 40 41 42 44 45 47 48 49 49
45 44 44 45 45 44 43 42 42 43 42 40 38 36 36 38 38 36 35 34 33 34 34 34 34 34 35 35 36 37 37 38 39 40 41 42 44 45 46 47 48 49 49
47 47 47 47 47 47 47 46 45 44 43 42 42 42 42 42 40 38 36 35 35 35 35 35 35 35 36 36 37 37 38 39 40 41 42 43 45 46 47 48 49 50 50
50 51 50 50 50 50 50 50 48 46 45 45 46 46 45 45 44 42 40 38 38 38 37 36 36 36 36 37 38 38 39 39 40 41 43 44 45 47 48 50 50 51 52
55 56 56 55 55 55 54 53 52 50 48 47 48 49 48 48 47 46 44 42 41 40 39 38 37 36 37 38 39 40 40 40 41 42 43 44 46 47 50 52 53 54 54

GEFSSE_500_meanwind_036.txt.gz
Wind_Speed
15 15 14 14 14 15 15 15 16 16 16 17 16 16 16 16 16 15 15 15 15 15 15 14 14 14 14 15 15 16 16 17 17 16 16 17 17 17 17 17 17 17 17
16 15 15 14 15 15 15 15 15 15 16 16 16 16 17 17 17 17 17 17 17 17 17 17 17 16 16 16 17 17 17 18 17 17 17 17 17 17 17 17 18 18 18
16 16 16 16 16 16 16 16 16 16 16 17 17 17 17 18 18 18 19 19 18 18 18 18 18 18 18 18 18 19 19 19 19 19 18 18 18 18 18 18 19 19 20
18 17 17 17 16 16 16 16 17 17 17 17 18 18 18 18 18 19 19 19 19 19 19 19 19 19 20 19 19 20 20 20 20 19 19 19 19 19 19 19 20 21 22
19 18 17 17 16 16 16 16 17 17 17 18 18 18 18 18 18 19 19 19 19 19 19 19 19 20 20 21 21 21 21 20 20 20 20 19 19 19 19 20 21 22 23
21 20 19 18 18 17 17 17 17 18 18 18 18 18 18 18 18 18 19 19 19 19 19 19 19 20 21 21 22 22 21 21 21 21 21 20 20 20 20 21 22 23 24
24 23 22 21 20 19 19 19 18 19 19 19 18 18 18 18 17 18 18 18 19 19 19 19 20 20 21 22 22 22 22 22 21 21 21 21 21 22 22 23 24 24 24
27 26 26 25 23 22 21 21 20 20 19 19 18 18 17 17 16 17 17 18 18 19 19 19 19 20 21 21 22 22 22 22 22 22 22 23 23 24 25 25 25 25 24
28 28 28 28 26 25 24 22 21 21 20 19 18 18 18 17 17 17 17 17 18 18 19 19 19 20 20 21 22 22 22 23 23 24 25 25 26 27 27 27 27 27 26
29 29 29 29 28 27 26 24 23 23 21 20 19 19 19 18 18 18 18 18 18 19 19 19 19 20 20 21 22 23 24 25 26 27 28 29 30 30 30 30 30 30 29
29 29 30 30 29 28 28 26 26 25 23 22 21 21 20 20 19 19 19 19 20 20 20 20 21 21 21 22 23 24 25 26 28 30 31 33 34 34 34 34 34 34 33
29 29 29 30 30 29 29 28 27 26 25 24 23 23 22 22 21 21 21 21 21 21 22 22 22 22 23 23 24 24 25 27 28 30 32 34 35 36 37 37 37 36 35
29 29 29 29 30 30 29 29 29 28 27 27 26 25 25 24 24 23 23 22 22 23 23 24 24 24 24 25 25 25 25 26 28 29 31 32 33 34 35 35 36 36 35
29 29 29 29 29 29 29 30 30 30 29 29 29 27 27 27 26 25 25 25 24 24 24 24 25 25 25 25 25 26 26 27 28 30 31 31 32 32 32 32 32 32 32
29 30 30 30 29 29 29 30 31 31 32 31 30 29 28 28 28 27 27 27 26 26 26 26 26 25 25 25 26 27 28 28 29 30 31 32 32 32 32 32 31 31 30
29 31 32 32 32 32 31 31 32 33 33 33 31 30 29 29 29 28 28 28 28 27 27 27 27 27 26 26 27 28 29 30 31 32 32 33 33 33 33 32 31 31 31
29 31 33 34 35 34 33 33 34 34 34 34 32 31 30 29 29 29 29 29 29 29 29 29 29 29 29 28 29 30 31 32 33 34 34 34 34 34 33 33 32 32 32
31 32 34 36 38 38 37 36 36 36 36 35 34 32 31 30 30 30 30 30 30 29 30 30 30 30 30 31 32 32 33 33 34 35 35 35 35 34 33 33 33 33 33
35 35 36 38 39 40 40 40 39 39 39 37 36 35 33 33 32 31 31 31 31 31 31 31 31 31 32 32 33 33 34 34 34 35 35 35 34 34 33 33 33 33 34
39 38 38 40 41 42 42 42 42 41 41 40 39 38 37 36 35 34 33 33 33 32 32 32 33 33 34 34 34 33 33 34 34 34 34 34 34 33 33 33 34 34 35
42 41 41 42 42 43 43 44 44 43 43 43 43 42 41 39 38 36 36 36 35 35 35 34 35 35 36 36 35 34 34 34 34 34 34 34 34 34 34 34 35 35 35
45 45 44 44 45 45 46 46 46 46 46 46 46 46 43 41 40 39 39 39 39 38 37 36 36 37 37 37 36 36 35 36 36 36 35 35 35 35 35 35 36 36 36
47 47 47 47 48 48 49 49 49 49 48 49 48 47 45 44 43 43 43 43 42 41 40 39 38 38 38 38 38 37 37 38 38 37 37 36 36 36 37 37 38 38 39
48 48 49 49 50 50 52 53 53 51 50 49 49 49 49 48 47 47 46 46 45 44 43 42 41 40 40 40 39 39 40 40 40 39 39 39 39 39 39 40 41 41 42
48 49 50 51 52 53 54 55 56 56 54 53 52 51 50 50 49 49 48 48 47 47 46 45 44 43 43 42 42 42 42 42 42 41 41 41 41 41 41 42 44 45 46
46 48 50 51 52 54 55 57 58 58 58 57 56 54 53 52 51 50 50 50 49 49 49 48 47 46 45 45 44 44 44 44 44 44 43 43 43 43 44 45 47 48 49

GEFSSE_500_meanwind_042.txt.gz
Wind_Speed
15 15 15 15 16 16 16 16 17 17 17 17 18 18 19 19 19 18 18 18 17 16 15 14 13 13 13 13 13 14 15 15 16 16 16 16 15 15 15 15 15 16 16
15 16 15 16 16 16 16 16 16 16 16 16 17 17 18 18 18 19 19 19 19 19 18 17 16 16 16 15 15 16 16 17 17 18 17 17 17 17 17 17 17 17 16
17 17 16 17 17 17 17 17 17 17 16 17 17 17 17 17 17 18 19 19 19 19 19 19 18 17 17 17 17 17 17 18 19 19 19 18 18 18 18 18 18 18 18
18 17 17 17 17 17 17 17 17 17 16 16 16 16 16 17 17 17 18 18 18 18 18 18 18 17 17 17 17 18 18 19 19 20 20 19 19 19 19 19 19 19 19
18 17 17 18 17 17 16 16 16 16 16 16 16 16 16 17 17 17 18 17 17 17 17 18 18 18 17 17 18 18 19 19 20 20 20 20 20 20 20 20 20 20 20
18 18 18 18 18 17 16 16 17 17 17 18 18 18 17 18 18 18 18 18 18 18 18 18 18 18 18 18 18 19 19 20 20 21 21 21 21 21 21 21 21 20 21
20 19 19 20 19 19 18 18 18 19 19 19 20 19 19 19 19 18 18 18 18 18 19 19 19 19 19 19 19 19 20 20 21 21 22 22 22 22 22 22 22 23 23
22 22 22 22 22 21 21 20 20 20 21 21 21 20 20 19 19 19 19 19 18 18 19 19 19 19 19 20 20 20 21 21 21 22 22 23 23 24 24 25 25 26 26
25 25 25 25 25 24 23 23 22 22 22 22 21 21 21 20 20 20 20 19 19 19 19 19 19 19 20 20 21 21 22 22 22 22 23 24 25 26 27 28 28 29 29
27 28 28 28 27 26 25 25 24 24 23 23 23 22 22 21 21 21 21 20 20 20 20 20 20 20 21 21 21 22 22 22 23 24 24 25 26 27 28 29 30 31 31
29 30 29 29 29 29 28 27 26 26 25 25 24 23 23 22 22 22 21 21 21 21 21 21 21 21 22 22 22 22 23 23 23 24 25 26 27 28 28 29 30 30 31
30 30 30 30 30 30 30 29 28 27 27 26 26 25 24 24 23 23 22 22 22 22 22 22 22 22 23 23 23 23 23 24 24 25 25 25 26 27 28 28 29 30 30
30 29 29 30 30 30 31 30 30 29 28 28 28 27 26 25 24 24 23 23 23 23 23 23 23 24 24 24 23 24 24 24 25 25 25 26 27 28 28 29 30 30 30
29 29 29 29 30 31 31 31 31 30 30 29 29 29 28 27 26 25 25 24 24 24 24 24 25 25 25 25 25 25 25 25 25 25 25 26 27 28 29 29 30 30 29
28 29 29 30 31 32 32 33 32 32 32 32 31 30 29 29 28 27 26 26 26 25 25 25 26 26 26 26 25 25 25 25 25 26 26 26 27 28 28 28 29 29 29
30 30 31 31 31 32 33 34 34 34 34 34 33 33 32 31 30 29 28 27 27 27 27 27 27 27 27 27 27 26 26 26 26 26 26 27 27 27 27 28 28 29 28
32 33 33 33 33 33 33 34 35 35 36 36 35 35 34 33 32 32 31 30 30 30 29 29 29 29 28 28 27 27 26 27 27 26 27 27 27 27 27 28 28 27 27
34 35 35 35 35 35 35 36 37 37 38 37 37 37 36 36 35 35 34 33 33 32 32 31 31 31 30 29 29 28 28 28 27 27 27 27 27 27 27 28 28 27 27
36 36 36 37 37 37 38 39 40 40 40 40 40 39 39 39 39 39 38 38 37 36 35 35 34 33 33 32 31 31 30 29 29 28 28 28 28 28 28 28 28 28 28
36 37 37 38 38 39 40 41 42 43 43 43 43 43 43 43 42 42 42 41 40 39 39 38 38 37 35 34 34 33 33 32 31 30 30 30 30 30 30 30 30 30 31
38 38 38 39 39 41 42 42 44 45 46 46 46 47 47 46 46 45 44 44 43 43 43 42 41 40 38 38 37 36 36 34 33 33 32 32 32 32 33 33 33 33 33
40 40 41 41 41 42 43 44 45 47 48 49 49 50 49 49 49 49 48 47 47 47 46 46 45 43 42 41 40 39 38 37 36 36 35 34 35 35 35 36 36 37 37
41 42 42 43 43 44 44 45 46 48 49 50 51 51 51 52 52 52 51 51 51 50 49 49 48 47 46 45 43 42 41 40 39 38 37 37 37 38 39 39 40 40 41
43 43 43 43 43 44 45 45 46 47 49 49 51 52 53 54 55 55 54 54 54 53 52 51 51 50 49 48 47 46 45 43 42 41 40 40 41 41 42 42 43 44 44
43 42 42 42 43 43 44 45 46 47 48 49 51 52 54 55 56 57 57 57 57 55 55 54 53 53 52 51 50 49 48 46 45 44 43 43 43 44 44 45 46 46 47
41 41 41 41 42 42 43 44 46 47 48 50 51 53 54 55 57 58 59 60 60 59 58 57 56 56 55 54 53 52 51 49 47 47 46 45 46 46 47 47 48 49 49

GEFSSE_500_meanwind_048.txt.gz
Wind_Speed
15 15 14 13 12 11 11 12 12 12 13 14 15 16 16 17 17 17 17 17 17 17 18 19 19 18 18 17 17 16 16 16 16 16 16 17 17 17 17 16 16 17 17
15 14 13 12 11 11 11 11 12 12 13 14 15 16 16 17 17 17 17 17 17 18 18 19 20 19 19 18 18 18 17 17 17 17 17 17 17 17 17 17 17 17 17
15 15 14 13 12 12 12 12 12 13 14 15 15 16 17 17 17 17 17 17 18 18 18 18 18 18 18 18 18 18 18 17 17 17 17 18 18 18 17 17 17 17 18
16 16 15 14 13 13 13 13 13 14 14 15 15 16 16 16 16 16 17 17 17 17 17 17 17 17 17 17 17 17 17 17 17 17 17 18 18 18 18 17 18 18 18
18 17 16 16 15 14 14 14 14 14 15 15 16 16 16 16 16 16 16 17 17 18 18 18 17 17 17 17 17 17 17 17 17 17 17 18 18 18 18 18 18 18 19
19 18 18 17 16 15 14 14 14 15 15 16 17 17 17 17 17 17 17 18 18 18 18 18 18 17 17 17 17 17 18 18 18 18 18 18 18 18 19 19 19 19 20
20 19 19 19 18 17 16 15 15 16 17 17 18 19 19 19 18 18 19 19 19 19 19 19 19 18 18 18 18 18 18 18 18 18 18 18 18 19 19 19 20 21 21
21 21 21 20 19 19 18 17 17 18 18 19 20 20 20 20 20 19 20 20 20 19 19 19 19 19 19 19 18 18 18 18 18 18 18 18 19 19 20 20 21 22 23
23 24 23 22 21 21 20 20 20 20 20 20 21 21 21 21 21 21 21 21 21 20 20 19 19 19 19 19 19 19 19 19 19 19 19 19 19 20 20 21 21 22 23
26 25 25 24 23 23 23 23 22 22 22 22 22 22 22 22 22 22 22 22 22 21 20 20 20 20 19 20 20 20 20 19 19 19 20 20 20 21 21 21 21 22 23
27 27 26 25 25 25 24 25 24 24 24 24 23 23 23 23 22 22 22 23 22 22 21 21 21 20 20 20 20 20 20 20 19 20 20 20 21 21 21 22 22 23 23
29 28 27 27 26 26 26 26 26 25 25 25 25 24 24 24 23 23 23 23 23 23 22 22 21 21 21 21 21 21 21 21 20 20 21 21 22 22 22 22 23 23 23
30 29 28 28 28 27 27 27 26 26 26 26 26 26 25 25 24 24 24 24 24 24 24 23 23 22 22 23 23 23 22 22 21 21 22 22 22 22 22 22 22 23 22
31 30 29 29 29 28 28 27 27 27 26 27 27 26 26 26 26 26 26 26 26 25 25 25 24 24 24 24 24 24 24 24 22 22 23 23 23 23 23 23 23 23 22
31 31 30 30 29 29 28 27 27 27 27 27 27 27 27 27 28 28 28 28 28 27 27 27 27 27 27 27 27 26 26 26 25 24 24 24 24 25 25 24 24 23 22
32 31 31 30 30 29 28 28 28 28 27 27 27 28 29 29 29 29 29 29 29 29 29 29 29 29 29 29 29 29 28 28 27 26 26 26 26 26 26 25 25 24 23
32 31 31 31 30 29 29 29 29 29 29 29 29 29 30 31 31 31 31 31 31 32 32 32 32 32 32 31 32 31 31 30 30 28 27 27 28 27 27 27 27 26 25
33 32 32 31 30 30 30 30 30 30 30 31 31 32 32 34 34 34 34 35 35 36 36 35 35 35 35 35 35 35 34 33 32 31 30 29 29 29 29 29 29 28 27
33 33 32 32 31 31 32 31 31 31 32 33 34 35 35 36 37 38 38 38 39 39 39 39 39 39 39 39 39 38 37 36 36 35 33 32 31 31 31 31 31 30 30
34 34 34 33 33 33 33 33 33 33 34 35 37 38 39 39 40 41 41 41 42 42 42 43 43 43 43 43 43 42 41 40 39 38 37 35 34 34 33 33 33 33 32
36 36 35 35 34 34 35 35 35 35 36 38 39 40 41 42 43 44 44 44 45 45 45 46 46 46 46 47 47 46 46 44 42 41 40 39 38 37 36 35 35 35 35
37 37 37 36 36 36 36 37 38 38 39 40 41 42 43 45 46 47 47 48 48 48 48 49 49 50 50 50 51 51 50 48 46 45 44 43 42 41 39 38 38 38 37
37 37 37 37 37 38 38 39 40 40 41 42 43 43 44 46 47 49 50 50 51 52 52 52 52 53 54 54 54 55 54 52 51 49 48 47 46 44 43 42 42 41 41
37 37 38 38 38 39 39 40 41 41 42 43 44 45 45 46 48 49 51 52 54 55 55 55 55 56 57 57 57 57 57 57 55 52 51 50 49 47 46 46 45 45 44
36 36 37 37 38 39 40 41 42 42 42 43 44 45 46 47 48 50 51 53 54 56 58 58 59 59 60 60 60 59 60 60 58 57 55 53 52 51 50 49 48 47 47
36 37 37 38 39 40 40 41 41 42 43 43 44 45 46 48 49 50 51 53 55 57 59 60 62 63 63 63 63 63 62 62 61 60 59 57 55 53 53 51 51 50 49

GEFSSE_500_meanwind_054.txt.gz
Wind_Speed
16 15 14 12 11 9 8 7 6 6 6 7 7 9 10 11 12 12 13 13 13 13 14 14 14 14 14 13 13 13 13 14 14 15 16 16 16 16 16 16 15 15 14
16 15 14 12 11 9 8 7 6 6 6 7 8 9 10 11 12 12 13 13 13 14 14 14 14 14 14 13 13 14 14 15 15 16 16 17 17 17 16 16 16 16 15
16 15 13 12 10 9 8 7 7 6 7 8 9 10 11 11 12 12 12 12 13 13 14 14 14 14 14 14 14 14 15 16 16 17 17 17 17 17 17 17 17 16 16
15 14 12 11 10 9 8 8 8 8 8 9 10 10 11 12 12 12 12 12 13 13 14 14 14 15 15 14 15 15 16 17 17 17 18 18 18 18 18 18 18 17 17
15 14 12 11 10 10 9 9 10 10 10 10 11 11 12 12 13 13 13 13 13 14 14 15 15 15 15 15 15 16 17 18 18 18 19 19 19 19 19 19 19 18 18
16 14 13 12 11 11 11 11 11 12 12 12 13 13 13 14 14 14 14 14 14 14 15 15 15 15 15 16 16 17 17 18 18 19 19 19 19 19 19 19 19 19 18
18 16 15 14 13 13 13 13 13 13 13 14 14 15 15 15 15 15 15 14 14 15 15 15 16 16 16 16 17 17 18 18 18 19 19 19 19 19 19 19 19 19 19
19 18 17 16 16 15 15 15 14 15 15 15 15 16 16 16 16 16 16 15 15 16 16 16 16 16 17 17 18 18 18 19 19 19 19 19 18 18 18 18 18 19 19
22 20 19 19 18 18 17 17 16 16 16 16 16 16 17 17 17 17 17 16 16 16 17 17 17 18 18 18 18 19 19 19 19 19 19 19 19 18 18 18 19 19 19
24 23 22 21 21 20 20 19 18 17 17 17 17 17 17 17 18 18 17 17 17 18 18 18 19 19 19 19 19 20 20 20 20 20 20 20 19 19 19 19 19 19 20
27 25 25 24 23 22 21 20 20 19 19 18 18 17 17 18 18 18 18 18 19 19 20 20 20 20 21 21 21 21 21 21 21 21 21 21 20 20 20 20 20 20 21
29 27 27 26 25 24 23 22 21 21 20 20 19 18 18 18 19 19 19 19 20 20 21 22 22 22 23 23 23 23 22 22 23 23 22 22 22 21 21 21 21 21 21
30 29 29 28 27 26 25 24 23 22 22 21 21 20 19 19 20 20 20 20 21 22 22 23 23 24 25 25 25 25 24 24 24 24 24 24 24 23 23 23 23 23 22
32 32 31 30 29 28 26 25 24 23 23 22 22 22 21 21 21 22 22 22 23 23 24 25 25 25 26 27 27 27 27 26 26 26 26 26 26 26 25 25 25 24 24
34 34 33 32 30 29 28 26 25 24 24 23 23 23 23 22 22 23 24 24 25 26 26 26 27 27 27 28 29 29 29 29 28 28 28 28 28 28 28 27 27 27 26
36 35 34 33 31 30 29 28 27 26 25 24 24 25 25 24 24 25 26 27 27 28 28 29 29 29 30 30 31 32 32 32 31 31 31 31 31 31 30 29 29 29 29
38 37 36 34 33 32 30 29 28 27 26 26 26 26 27 27 27 27 27 28 29 30 30 31 32 32 32 33 34 35 36 36 35 35 34 34 34 34 33 32 32 31 31
39 38 37 35 34 33 32 30 29 28 27 27 27 28 29 29 30 29 29 29 30 31 32 33 34 35 36 36 37 38 39 39 38 38 37 37 37 37 37 36 35 34 34
39 38 37 35 34 33 33 32 30 29 29 29 29 30 30 31 31 32 32 32 33 34 35 36 37 38 38 39 41 41 42 42 42 42 41 41 40 40 40 39 39 38 37
39 38 37 36 35 35 34 33 32 31 31 31 31 31 32 32 33 34 35 35 37 37 38 39 40 40 41 42 43 44 45 45 45 45 45 44 44 43 43 43 42 41 41
40 39 38 37 36 36 35 35 34 33 33 33 34 34 34 35 36 36 37 38 39 40 41 42 42 43 44 45 46 47 48 48 48 48 48 48 47 47 46 45 45 45 44
40 40 39 39 38 37 37 36 36 35 35 36 36 37 37 38 39 39 39 40 41 42 43 44 45 46 47 48 49 50 50 50 49 51 51 51 50 50 49 48 48 47 47
42 41 41 40 40 39 38 38 38 38 38 38 38 39 39 40 40 41 42 43 44 45 45 46 47 48 49 50 50 52 52 52 52 52 53 53 53 53 52 51 51 50 49
43 42 42 42 42 41 40 40 40 39 40 40 40 40 40 41 42 43 44 45 46 47 47 48 49 50 50 50 51 52 54 54 55 55 54 55 56 56 55 55 54 53 52
43 43 43 43 42 42 41 41 41 41 41 41 41 41 42 43 43 44 45 46 47 48 48 49 50 50 50 51 52 53 55 56 57 58 58 58 58 58 58 57 56 55 55
43 43 43 43 42 42 42 41 41 41 42 42 42 43 43 44 45 45 46 47 47 47 48 48 48 49 50 51 53 54 55 57 58 59 60 60 60 60 59 59 58 57 57

GEFSSE_500_meanwind_060.txt.gz
Wind_Speed
14 13 12 11 10 9 8 7 6 5 4 3 3 3 5 6 7 8 9 9 10 10 10 11 11 11 11 11 11 12 12 13 13 14 15 15 16 16 16 17 17 17 17
15 15 13 12 11 10 9 8 7 5 4 3 3 4 5 7 8 9 9 9 10 10 11 11 11 11 12 12 12 13 13 14 15 15 16 17 17 17 18 18 18 18 18
16 15 14 13 12 11 9 8 6 5 4 3 4 5 6 8 9 9 10 10 10 10 11 11 12 12 12 13 13 14 14 15 16 16 17 17 18 18 18 18 19 19 18
16 15 14 13 12 11 9 8 6 4 4 4 5 6 7 8 9 10 11 11 11 11 12 12 13 13 13 14 14 15 15 16 17 17 18 18 18 19 19 19 19 19 19
17 15 14 13 11 10 9 7 6 5 5 5 6 7 8 9 10 11 12 12 12 12 13 13 14 14 14 14 15 16 17 17 18 18 18 19 19 19 20 19 19 19 19
18 16 14 12 11 10 9 7 6 6 6 7 7 8 9 10 11 12 13 13 13 13 14 14 15 15 15 16 16 17 18 19 19 19 20 20 20 20 20 20 20 20 19
19 17 15 13 12 10 9 8 7 7 8 9 9 10 11 12 13 13 14 14 14 14 14 14 15 16 16 17 18 19 19 20 20 21 21 21 21 21 21 21 21 20 20
19 17 16 14 12 11 10 9 9 9 9 10 11 12 13 13 14 14 15 15 15 15 15 15 16 17 17 18 19 20 20 21 22 22 22 22 22 22 22 22 21 21 21
21 19 17 15 14 12 11 11 10 10 10 11 12 13 14 15 15 16 16 16 16 16 16 16 17 18 19 19 20 21 22 22 23 23 23 24 24 23 23 23 23 23 22
23 21 19 17 16 14 13 12 12 11 12 12 13 13 14 15 16 17 17 17 17 17 17 17 18 19 20 21 22 23 23 24 25 25 25 25 25 25 25 25 25 24 24
25 23 21 19 18 17 15 14 14 13 13 14 14 14 15 16 16 17 17 18 18 18 19 19 20 20 21 22 23 24 25 26 26 26 26 27 26 26 26 26 26 26 26
28 25 23 22 20 19 18 17 16 15 15 16 16 16 16 17 17 17 17 18 19 19 20 20 21 22 23 23 24 26 27 27 27 28 28 28 28 28 28 28 28 28 28
30 28 26 24 23 22 21 19 18 18 18 18 18 18 18 18 18 18 19 19 20 20 21 21 22 23 24 25 26 27 28 29 29 30 30 30 31 31 31 31 30 30 30
32 30 28 27 26 24 23 22 21 20 20 20 20 20 20 20 20 20 20 21 21 21 22 22 23 25 26 27 27 28 29 30 30 31 32 32 33 33 33 33 33 33 33
34 32 30 29 28 27 26 25 24 23 23 22 22 22 22 22 22 22 22 22 23 23 23 24 25 26 27 28 29 30 31 31 32 33 34 34 35 36 36 36 36 36 36
35 34 33 32 31 30 28 27 27 26 25 25 24 24 24 24 24 24 24 24 25 25 25 26 27 28 29 30 31 32 33 34 34 35 36 37 37 38 38 39 39 39 38
38 36 35 34 34 32 31 30 29 29 28 27 27 26 26 26 26 26 26 27 27 27 27 28 29 30 31 32 34 35 36 36 37 38 38 39 39 40 40 41 41 41 41
39 38 37 36 35 34 33 32 32 31 30 30 29 29 28 28 28 28 28 29 29 29 30 31 32 33 34 35 37 38 38 39 40 40 41 41 42 42 43 43 43 43 43
41 40 39 38 37 36 35 35 34 34 33 33 32 31 31 31 30 30 30 31 31 32 33 34 35 36 37 38 40 40 41 42 43 43 43 44 45 45 45 45 44 44 44
44 42 41 40 39 38 38 37 37 36 36 35 34 34 34 33 32 32 32 33 34 34 35 37 38 39 40 41 42 42 43 44 44 45 45 46 46 46 46 46 46 46 46
46 45 43 42 41 41 40 40 39 39 38 37 36 35 35 35 35 35 34 35 36 37 38 39 40 41 42 44 45 45 45 45 45 46 46 46 46 46 46 47 47 47 47
47 46 45 44 43 43 43 42 41 41 40 39 38 37 37 37 37 37 37 38 39 40 41 42 43 44 44 46 47 47 46 45 45 46 46 45 45 46 47 48 48 48 49
45 45 45 45 44 44 44 43 42 42 41 40 39 39 39 39 39 39 40 40 41 42 43 44 45 46 47 48 48 49 49 47 46 45 44 45 45 46 47 48 49 50 51
44 44 45 45 45 44 43 43 43 43 42 41 41 41 41 41 41 42 42 43 43 44 45 46 47 48 49 49 49 49 49 48 47 45 44 44 45 46 47 48 49 51 51
43 43 44 45 45 45 45 44 44 44 43 42 42 42 43 43 43 44 44 45 45 46 47 48 49 49 50 50 49 49 48 48 47 46 45 44 46 47 48 49 50 50 51
43 43 44 45 45 45 46 46 46 45 45 44 44 45 45 45 45 45 46 46 46 47 48 49 49 50 50 49 48 48 48 47 46 46 45 45 46 47 48 49 49 50 52

GEFSSE_500_meanwind_066.txt.gz
Wind_Speed
15 14 12 11 9 8 7 5 4 4 3 3 3 2 1 1 1 3 4 4 5 6 7 7 8 8 9 9 9 9 10 11 11 12 13 14 14 15 15 16 17 17 17
16 15 14 12 10 8 7 6 5 4 4 3 3 2 1 1 2 3 4 5 5 6 7 7 8 9 9 10 10 10 11 12 13 14 14 15 15 16 17 17 18 18 18
16 15 14 13 11 9 7 6 5 5 4 4 3 2 1 1 2 3 4 5 6 6 7 8 8 9 10 10 10 11 12 13 14 15 15 16 16 17 18 18 18 18 19
17 15 14 13 11 10 8 7 7 6 5 4 3 2 2 2 3 4 5 6 6 7 7 8 9 9 10 11 11 12 13 14 15 15 16 17 17 18 18 19 19 19 20
18 16 14 13 12 11 10 9 8 7 6 5 4 3 3 3 4 5 6 6 7 7 8 8 9 10 10 11 12 13 13 14 15 16 17 18 18 19 20 20 21 21 21
20 17 15 14 13 12 11 10 9 8 7 5 4 4 4 4 5 5 6 7 7 8 8 9 9 10 11 11 12 13 14 15 16 17 18 19 20 20 21 21 22 22 22
22 19 17 16 15 14 13 11 10 9 7 6 6 5 5 5 5 6 7 7 8 8 9 9 9 10 11 12 13 14 15 16 17 18 19 20 21 21 22 23 23 23 23
24 21 19 18 17 15 14 13 11 10 9 8 7 6 6 6 6 7 8 8 9 9 10 10 10 11 12 13 14 15 16 17 18 19 20 21 22 22 23 24 24 25 25
26 23 21 19 18 17 16 14 13 11 10 9 8 8 7 7 8 8 9 9 9 10 10 11 12 12 13 14 15 16 17 18 19 20 21 22 23 24 24 25 26 26 26
28 25 23 21 20 19 17 16 14 13 11 10 9 9 9 9 9 10 10 10 11 11 11 12 13 14 14 15 16 17 18 19 20 21 22 23 24 25 26 26 27 27 28
30 27 25 23 21 20 19 18 16 14 13 12 11 10 10 11 11 11 11 11 12 12 12 13 14 15 16 17 18 19 19 20 22 23 23 24 25 26 27 28 28 29 29
32 29 27 25 23 22 21 19 18 16 14 13 12 12 12 12 12 12 12 12 13 13 13 14 15 16 17 18 19 20 21 22 23 24 25 26 27 28 29 30 30 31 31
35 32 29 28 26 24 23 21 20 18 16 15 14 14 14 14 14 14 14 14 14 14 15 15 16 17 18 20 21 22 23 24 25 26 27 28 29 30 31 31 32 32 33
37 34 32 30 28 27 25 24 22 20 18 17 16 16 16 16 16 16 16 16 16 16 16 17 18 19 20 21 23 24 25 26 28 29 30 31 31 32 33 33 34 34 34
38 36 34 32 31 29 28 26 25 23 21 20 19 19 18 18 18 18 18 18 18 18 19 19 20 21 22 23 25 26 27 28 29 31 32 33 34 34 35 35 36 36 36
40 38 37 35 34 32 31 29 27 26 24 23 22 22 21 21 21 21 21 21 21 21 21 22 23 24 25 26 27 28 29 30 31 33 34 35 36 37 37 37 37 37 37
41 40 39 37 36 35 34 32 30 29 28 27 26 25 24 24 24 23 24 24 24 24 24 25 26 27 28 29 30 31 32 33 34 35 36 37 38 39 39 39 39 38 38
42 40 40 39 38 37 36 35 34 32 31 30 29 28 27 27 26 26 27 27 27 27 27 28 29 30 30 31 32 33 34 35 36 38 39 40 40 40 40 40 40 39 38
42 41 41 41 40 40 39 38 37 36 34 33 32 31 30 29 29 29 29 30 30 30 30 31 32 32 33 34 35 36 37 37 39 40 41 42 42 42 42 41 41 40 39
44 43 42 42 42 42 42 41 40 38 37 36 35 34 33 33 32 32 32 32 32 33 33 34 34 35 35 36 37 38 39 40 41 42 43 43 43 43 43 43 42 41 39
46 45 44 43 44 44 44 43 42 41 40 39 38 37 37 36 35 35 35 35 35 35 36 36 37 38 38 39 40 41 41 42 42 44 44 45 45 45 44 43 42 40 39
49 48 47 46 46 45 45 45 44 44 43 42 41 40 40 39 39 38 38 38 38 38 38 39 40 40 40 41 43 43 43 43 43 44 45 46 46 45 44 43 42 41 40
51 50 50 50 49 47 47 46 46 46 45 45 44 43 42 42 41 41 41 40 40 40 40 41 42 42 43 44 44 45 46 46 45 44 44 44 45 44 44 43 42 41 41
52 52 51 51 51 50 49 49 48 48 47 47 46 46 45 44 44 43 43 43 42 42 42 43 43 44 45 45 45 46 47 48 48 47 44 43 43 43 43 42 41 41 42
52 53 53 52 52 51 51 51 50 50 49 49 49 48 47 47 46 46 45 44 44 44 44 45 45 46 46 47 47 47 48 48 48 48 46 44 43 42 42 41 41 41 42
51 51 51 51 51 51 51 51 51 50 50 50 49 49 49 48 48 47 46 46 46 46 46 46 46 47 47 48 48 48 48 48 47 46 45 44 43 42 41 41 42 42 42

GEFSSE_500_meanwind_072.txt.gz
Wind_Speed
17 16 14 12 11 10 10 9 7 6 5 5 4 4 4 3 3 2 1 1 2 3 4 4 5 6 7 7 7 8 9 10 11 11 12 13 14 15 15 16 17 17 18
18 17 15 14 12 11 10 9 8 6 5 5 5 4 4 4 3 2 1 1 2 2 3 4 5 5 6 7 7 8 9 10 11 11 12 13 14 15 16 17 17 18 19
19 18 16 15 13 12 10 9 8 7 6 6 5 5 5 4 3 2 2 2 2 3 3 4 4 5 6 6 7 8 9 10 11 12 13 14 15 16 16 17 18 19 19
21 19 17 15 14 13 11 10 9 8 8 7 7 6 5 5 4 3 2 2 2 3 3 4 4 5 6 6 7 8 9 10 11 12 13 14 15 16 17 18 19 19 20
22 20 17 16 14 13 12 11 11 10 9 8 8 7 6 5 4 3 2 2 3 3 3 4 4 5 5 6 7 8 9 10 11 12 13 14 15 17 17 18 19 20 21
23 21 19 17 15 14 14 13 12 11 10 10 9 8 7 6 5 4 3 3 3 3 3 4 4 5 6 7 7 8 10 11 12 13 14 15 16 18 19 20 20 21 22
24 22 19 18 16 15 15 14 14 13 12 11 11 9 8 7 6 5 4 4 4 3 3 4 4 5 6 7 8 9 10 11 13 14 15 17 18 19 20 21 22 22 23
25 23 20 19 18 17 16 16 15 14 13 12 12 11 9 8 7 6 5 4 4 4 4 4 5 6 6 7 9 10 11 13 14 15 17 18 19 20 21 22 23 24 24
27 24 22 20 19 18 18 18 17 16 15 14 13 12 10 9 8 7 6 5 5 5 5 5 6 7 7 9 10 11 13 14 15 17 18 19 21 22 23 24 25 25 26
28 26 24 22 21 20 20 19 18 17 16 15 13 12 11 10 9 8 7 7 6 7 7 7 8 8 9 10 11 13 14 16 17 18 20 21 22 23 25 26 27 27 28
30 28 26 24 23 22 21 21 20 19 18 16 15 13 12 11 10 9 9 9 8 8 9 9 10 10 11 12 13 14 16 17 19 20 21 22 24 25 27 28 29 29 30
32 30 28 26 24 23 23 22 21 20 19 18 17 15 14 13 12 11 11 11 10 10 11 11 12 13 13 14 15 16 17 19 20 22 23 24 26 27 28 30 30 31 31
34 32 29 27 25 25 24 24 23 22 21 20 19 17 16 15 14 13 13 13 12 12 13 13 14 15 15 16 17 18 19 20 22 23 25 26 27 29 30 31 32 33 33
35 33 31 29 27 26 25 25 25 24 24 22 21 20 18 17 16 16 15 15 14 14 15 15 16 16 17 18 19 20 21 23 24 25 27 28 30 31 32 33 33 34 35
37 35 34 32 30 28 27 26 26 26 26 24 23 22 21 20 19 18 18 17 17 17 17 17 18 18 19 20 21 23 24 25 26 27 29 30 32 33 33 34 35 35 36
41 39 37 36 33 31 29 28 28 28 28 27 26 25 23 23 22 21 20 20 20 19 19 20 20 21 21 22 23 25 26 27 28 30 30 32 33 35 35 36 36 37 37
43 41 40 38 36 34 32 31 30 29 29 29 29 28 27 26 25 24 23 23 22 22 22 23 23 23 24 25 26 27 28 29 30 32 33 34 35 36 37 37 38 38 38
44 42 41 39 38 37 35 34 33 32 31 31 31 31 30 29 28 27 26 26 25 25 25 25 26 26 27 27 28 29 30 31 32 34 35 36 37 37 38 39 39 40 40
46 44 43 41 40 39 38 37 36 34 34 33 34 34 33 32 31 30 30 29 29 28 28 28 28 29 29 30 30 31 32 33 34 36 37 38 39 39 40 40 41 41 41
48 46 45 43 42 41 40 39 38 37 36 36 36 36 36 36 35 34 34 33 32 31 31 31 31 32 32 33 33 34 35 36 37 37 38 40 41 41 41 42 43 42 41
48 47 46 45 44 43 42 41 40 39 38 38 38 39 39 38 38 37 37 36 35 35 35 34 35 35 35 36 37 37 37 38 38 39 39 41 42 42 43 43 43 43 42
47 47 48 47 45 44 43 42 41 41 40 40 40 40 41 41 40 40 40 39 39 39 38 38 39 39 39 39 40 40 40 39 40 40 40 41 42 43 44 44 44 43 42
48 47 47 47 48 46 45 45 44 43 42 42 42 43 43 43 43 43 43 43 42 42 42 42 42 42 42 42 43 44 44 43 42 41 42 41 42 43 44 44 44 43 42
47 48 49 48 48 48 48 47 47 46 46 45 45 45 45 45 45 45 45 45 45 45 45 45 45 45 45 44 45 45 46 46 46 44 44 44 44 44 44 44 43 43 42
47 46 48 49 49 49 50 49 49 49 48 48 48 48 48 48 47 47 48 48 48 48 48 48 47 47 47 47 47 47 46 46 46 46 45 45 45 45 44 44 43 43 42
47 48 49 49 49 49 50 50 51 51 50 50 51 50 50 49 49 49 49 50 50 50 49 49 49 49 49 48 48 48 47 47 46 46 45 45 45 45 44 44 44 43 42

GEFSSE_500_meanwind_078.txt.gz
Wind_Speed
19 17 15 13 11 10 8 8 7 7 7 7 6 6 6 5 5 5 4 4 4 3 3 2 2 2 2 2 2 3 4 4 5 6 7 8 9 10 11 12 13 14 15
21 19 17 15 13 11 9 9 9 8 8 8 7 7 7 6 6 6 5 5 5 4 4 3 3 2 2 2 2 2 3 4 5 6 7 8 9 10 11 13 13 14 15
23 21 19 17 15 13 11 10 10 10 9 9 8 8 8 7 7 6 6 6 5 5 5 4 4 3 2 2 2 2 3 4 5 6 7 8 9 11 12 13 14 15 16
25 22 20 18 16 15 13 12 11 11 10 10 9 9 8 8 8 7 7 7 6 6 6 5 4 4 3 3 3 3 3 4 6 7 8 9 10 11 12 13 14 15 17
27 24 22 20 18 16 14 13 13 12 12 11 11 10 10 9 9 8 8 8 7 7 6 6 5 5 4 4 3 4 4 5 6 7 8 9 10 12 13 14 15 16 17
29 26 23 21 19 17 16 15 14 13 13 12 12 12 11 11 10 10 9 8 8 8 7 7 6 6 5 4 4 4 5 6 7 8 9 10 11 12 13 15 16 17 18
30 27 24 22 20 18 17 16 15 15 14 14 14 13 13 12 12 11 10 10 9 9 8 8 7 6 6 6 5 5 6 7 7 8 9 11 12 13 15 16 17 19 20
30 28 25 23 21 19 18 17 16 16 16 16 15 15 14 14 13 12 11 11 11 10 9 9 8 7 7 6 6 6 7 8 8 9 10 11 13 14 15 17 19 20 21
31 29 26 24 22 20 19 18 17 17 17 17 17 16 16 15 15 14 13 12 11 11 10 10 9 8 8 8 7 8 8 9 9 11 11 12 14 15 17 18 20 21 22
32 30 28 25 23 21 20 19 18 18 18 18 18 18 17 17 16 15 14 13 13 12 11 11 10 10 9 9 9 9 10 10 11 12 13 14 15 17 18 20 21 23 24
34 32 29 26 23 21 20 19 18 18 18 19 19 19 18 18 17 16 15 14 13 13 12 12 11 11 10 10 11 11 11 12 13 14 15 16 17 18 20 22 23 24 25
35 33 30 27 24 23 21 20 19 18 18 19 19 19 19 18 17 17 16 15 14 14 13 13 13 12 12 12 12 13 13 14 15 16 17 18 19 20 22 23 25 26 27
35 34 31 27 25 24 22 21 20 19 19 19 20 20 20 19 19 18 17 16 15 15 14 14 14 14 14 14 15 15 15 16 17 18 19 20 21 22 24 25 27 28 28
35 34 32 29 26 25 23 21 21 20 20 20 20 21 21 21 20 20 19 18 17 17 16 16 16 16 16 17 17 17 18 18 20 20 21 22 23 25 26 27 28 29 30
37 34 32 30 28 26 24 23 21 21 20 21 21 21 21 22 22 21 21 20 19 19 19 18 18 19 19 19 19 20 20 21 22 23 24 25 26 27 28 29 30 31 31
37 35 33 32 30 28 26 24 23 22 22 21 22 22 23 23 23 23 23 23 22 21 21 21 21 21 21 22 22 22 23 23 24 25 26 27 28 29 30 31 32 32 32
38 36 34 33 32 31 28 26 25 24 23 23 23 23 24 25 25 25 25 25 25 24 24 23 23 24 24 24 25 25 25 26 26 27 28 30 30 32 32 33 34 34 34
41 37 36 35 34 32 30 28 26 26 25 25 25 25 25 26 27 27 27 28 27 26 26 26 26 26 27 27 27 27 28 28 29 30 31 32 33 34 34 35 35 35 35
42 40 37 37 36 34 33 32 30 29 29 28 28 28 28 29 29 29 30 30 29 29 29 29 29 29 30 30 30 30 30 31 32 33 34 34 35 36 36 37 37 36 36
43 42 41 39 37 37 36 34 32 32 31 30 30 30 31 31 31 31 32 32 32 32 32 32 32 32 33 33 32 32 33 33 34 35 36 37 38 38 38 38 38 38 38
43 43 41 41 39 39 38 37 36 35 34 33 33 33 34 34 34 34 34 34 34 35 35 35 35 35 35 36 35 35 35 36 37 38 39 39 40 40 40 40 40 39 39
45 43 42 41 41 40 40 39 39 39 38 37 35 35 36 37 36 36 36 37 37 37 37 38 38 38 39 39 39 39 38 38 39 40 41 41 42 42 42 41 41 40 40
44 44 43 43 43 41 41 42 41 41 40 40 39 39 39 40 39 38 39 39 39 39 39 40 41 41 41 41 42 42 42 41 40 40 41 42 43 43 42 42 40 40 39
44 44 44 44 44 43 43 43 43 43 42 42 43 43 43 42 42 42 42 42 42 42 42 43 43 43 43 42 43 44 45 45 44 43 42 43 43 43 42 41 41 40 39
44 45 44 44 44 44 44 44 44 44 44 44 45 45 45 44 44 44 44 45 44 45 45 45 44 44 44 44 44 45 45 46 46 47 45 44 44 44 42 41 41 40 40
43 44 44 44 44 44 45 45 45 45 46 46 47 47 47 47 47 47 47 47 46 46 46 47 47 47 47 47 47 47 47 47 48 48 47 47 45 44 43 42 41 41 41

GEFSSE_500_meanwind_084.txt.gz
Wind_Speed
26 23 21 18 16 15 13 12 11 10 9 8 7 6 6 6 5 5 5 4 4 4 4 5 5 4 4 4 3 3 3 3 3 4 5 6 7 8 9 10 12 13 14
28 25 23 20 18 17 15 13 12 11 10 9 8 8 7 7 6 6 6 5 5 5 5 5 5 5 5 4 4 3 3 3 4 4 5 6 7 8 10 11 12 13 14
30 27 25 22 20 18 17 15 14 12 11 10 10 9 9 8 7 7 7 6 6 6 6 6 6 6 5 5 5 4 4 4 4 5 6 6 7 8 10 11 12 13 15
32 29 27 25 22 20 18 17 15 14 13 12 11 10 10 9 8 8 7 7 7 7 7 7 7 7 6 6 5 5 5 4 4 5 6 7 8 9 10 11 13 14 15
34 31 29 27 24 22 21 19 17 15 14 13 13 11 11 10 9 8 8 8 8 8 8 8 8 8 7 7 6 6 5 5 5 6 7 8 8 9 10 11 13 14 16
36 34 31 29 26 25 23 21 19 17 16 15 14 13 12 11 10 9 9 9 9 9 9 9 9 9 8 8 7 7 7 6 6 7 7 8 9 10 11 12 13 15 16
38 36 33 31 28 26 25 23 21 19 18 16 16 14 14 13 12 11 10 10 10 10 10 10 10 9 9 8 8 8 8 7 7 8 8 9 10 10 12 13 14 15 17
40 38 35 33 30 28 27 25 23 21 19 18 17 16 15 14 13 13 12 11 11 11 11 11 11 10 10 9 9 9 8 9 9 9 9 10 11 11 12 13 15 16 18
43 40 37 35 32 30 28 26 25 23 21 20 18 17 16 16 15 14 13 13 12 12 12 12 12 11 11 10 10 10 10 10 10 10 11 11 12 13 14 15 16 17 19
44 42 39 37 34 32 30 28 26 24 23 21 20 19 18 17 17 16 15 14 14 14 13 13 13 12 12 12 11 11 11 11 11 12 12 13 13 14 15 16 17 19 20
46 44 42 39 36 33 31 28 27 25 23 22 21 20 18 18 18 17 16 16 15 15 14 14 14 14 13 13 13 13 13 13 13 13 14 14 15 16 17 18 19 20 22
46 45 43 40 37 34 32 29 27 25 24 22 21 20 19 19 18 18 17 17 17 16 16 15 15 15 15 14 14 14 14 14 15 15 16 16 17 18 18 20 21 22 24
48 47 44 42 39 36 33 30 28 26 25 23 22 21 20 20 20 19 19 18 18 18 17 17 17 16 16 16 16 16 16 16 17 17 18 18 19 20 20 22 23 24 26
48 47 45 43 41 38 35 32 29 27 25 24 22 21 21 21 21 20 20 19 19 19 19 18 18 18 18 18 18 18 19 19 19 20 21 21 22 22 23 24 25 27 28
45 45 45 44 42 39 37 34 31 28 26 24 23 22 21 21 21 21 21 21 21 21 21 21 20 20 20 20 21 21 22 22 22 23 24 24 25 25 26 27 28 29 30
43 44 45 43 42 40 38 35 32 29 27 25 23 23 22 22 22 22 22 22 22 22 23 23 23 23 23 23 24 24 25 25 25 26 27 27 27 28 29 29 30 31 33
40 39 41 42 41 39 37 35 33 30 28 27 25 24 23 23 23 23 24 24 24 24 25 25 25 26 26 26 27 27 27 28 28 29 29 30 30 31 31 32 33 34 35
39 37 39 39 39 39 37 36 35 33 30 29 27 26 25 24 24 24 24 25 25 25 25 26 27 28 28 29 30 30 30 31 31 32 32 33 33 34 34 34 35 36 36
39 38 38 38 37 37 37 36 36 34 32 30 28 27 27 26 25 25 26 26 25 26 27 28 29 30 30 31 32 32 33 33 34 35 35 36 36 36 36 37 38 38 39
38 40 39 38 37 37 36 36 35 34 33 31 30 29 28 28 27 27 27 27 27 28 28 29 31 32 33 34 34 34 35 36 37 37 38 39 39 39 39 40 41 41 41
36 38 39 37 35 35 36 35 35 34 34 33 31 30 28 28 29 29 30 30 30 30 31 32 33 34 35 36 36 36 37 38 39 40 40 41 41 42 42 42 42 42 43
36 35 34 35 35 35 35 35 33 33 34 34 33 32 31 31 31 31 32 33 33 33 33 34 35 36 37 38 38 39 39 39 40 41 42 43 44 44 44 43 43 44 44
37 36 34 34 35 35 35 34 34 34 34 34 35 34 34 35 34 34 34 34 34 34 34 36 36 38 38 39 40 41 42 41 41 41 42 43 44 44 44 45 45 45 44
39 37 35 35 36 36 36 35 35 35 34 34 34 35 35 35 35 34 34 35 35 35 36 37 38 39 40 41 43 44 44 45 44 42 41 43 44 45 45 46 46 46 46
41 39 38 37 36 36 36 36 35 35 35 35 35 36 36 36 36 36 36 37 37 38 39 40 40 40 41 42 43 44 44 44 45 45 44 44 45 46 46 46 46 47 46
40 40 39 39 39 38 37 36 37 37 36 37 37 36 37 37 37 37 38 39 40 41 41 41 42 42 43 44 44 45 46 46 47 48 48 47 47 47 47 47 47 47 47